2022-057V (52751 NORAD) Tracking and Keplerian Element Data

This shows tracking and keplerian element data for the satellite.

Feedback or suggestion? Click here.




ElementValue
Catalog52751
Name2022-057V
Epoch Orbit708
Epoch Day192.5959651
Epoch Year2022
RAAN306.8869
Inclination97.5159
Eccentricity0.0011335
Argument of Perigee78.6608
Mean Anonmoly281.5896
Mean Motion15.12361649
Decay Rate2.475E-05
L11 52751U 22057V 22192.59596510 .00002475 00000+0 14625-3 0 9990
L22 52751 97.5159 306.8869 0011335 78.6608 281.5896 15.12361649 7088

Live tracking and technical data element details for 2022-057V (NORAD 52751). 2022-057V can be tracked NOW for your location showing map with azimuth and elevation plus other details from your city location.

Track the satellite on the map from your city or location and see movement details for azimuth, elevation, latitude, longitude, range, height, and movement on the map or in text.







IsCatalogInMostPopularTable: catalog: 52751, numindb: 3
Update: records affected: 1



GetName: 52751 2022-057V

Hit Count: updated at: Sat, 13 Aug 2022 23:59:44 GMT